Location: Helion Bumpstead
(52.0500°N, 0.4000°E)
Time: 22:15:31
(UTC+00:00)

Cosmos 2233 Rocket - Pass Details

Date: 15 November 2025
Orbit: 953 x 989 km, 82.9° (Epoch: 06 December)

Event Time Altitude Azimuth Distance (km) Brightness Sun altitude
Rises 04:22:50 0° 349° (N) 3,712 7.0 -26.8°
Reaches altitude 10° 04:25:22 10° 349° (N) 2,757 6.3 -26.4°
Maximum altitude 04:31:42 87° 262° (W) 990 3.9 -25.4°
Drops below altitude 10° 04:37:57 10° 174° (S) 2,716 6.4 -24.5°
Sets 04:40:26 0° 174° (S) 3,654 7.1 -24.1°
